Simultaneous Nadir Overpasses (SNOs) Predictions

Prediction of SNOs between NOAA-19 and METOP-C Satellite Orbit:

Table of predicted SNOs for the next 14.0 days since TLE Epoch: 10/23/2021
Index Date (NOAA-19) Time (NOAA-19) Lat,Lon (NOAA-19) SZA (NOAA-19 ) Date (METOP-C) Time (METOP-C) Lat,Lon (METOP-C) SZA (METOP-C ) Distance(km) Time Diff (sec)
1 10/28/2021 16:03:28 80.66, -30.12 95.58 10/28/2021 16:04:39 80.67, -30.14 95.62 1.59 71
2 10/28/2021 16:54:26 -80.67, 136.88 84.43 10/28/2021 16:55:22 -80.66, 136.92 84.41 1.55 56
3 10/28/2021 17:45:28 80.66, -55.54 95.61 10/28/2021 17:46:01 80.66, -55.61 95.62 1.49 33
4 10/28/2021 18:36:25 -80.65, 111.81 84.38 10/28/2021 18:36:43 -80.67, 111.80 84.36 1.86 18
5 10/28/2021 19:27:28 80.65, -80.97 95.64 10/28/2021 19:27:23 80.66, -81.08 95.63 1.99 5
6 10/28/2021 20:18:25 -80.65, 86.39 84.35 10/28/2021 20:18:05 -80.66, 86.33 84.35 1.68 20
7 10/28/2021 21:09:28 80.65,-106.40 95.67 10/28/2021 21:08:45 80.65,-106.55 95.63 2.77 43



Historial Predications of SNOs between NOAA-19 and METOP-C
